User: anonymous   Login
Location: Newark
(42.8481°N, 0.4872°E)
Time: 20:59:40
(UTC+00:00)
Language:

S-56A Canister/Altair - Orbit

View from above orbital plane
View from above orbital plane
View from above satellite
View from above satellite

Ground track
Ground track

The orbit data is extracted from the following two-line orbital elements,

1    82U 61004B   20301.63387351 -.00000088 +00000-0 -27042-4 0  9990
2    82 038.8590 068.9430 1174879 001.5211 358.8622 12.26056632824036
Epoch (UTC): 27 October 2020 15:12:46
Eccentricity: 0.1174879
inclination: 38.8590°
perigee height: 633 km
apogee height: 2499 km
right ascension of ascending node: 68.9430°
argument of perigee: 1.5211°
revolutions per day: 12.26056632
mean anomaly at epoch: 358.8622°
orbit number at epoch: 82403

The dashed part of the orbit path shows where the satellite is in the earth's shadow,  

DLR